Location: North Evanston
(42.0634°N, 87.6976°W)
Time: 19:58:57
(UTC+00:00)

Injun/Solrad 3 - Pass Details

Date: 19 May 2026
Orbit: 867 x 989 km, 66.8° (Epoch: 6 June)

Event Time Altitude Azimuth Distance (km) Brightness Sun altitude
Rises 04:29:04 0° 334° (NNW) 3,681 12.4 -25.6°
Reaches altitude 10° 04:31:49 10° 342° (NNW) 2,741 11.4 -25.8°
Maximum altitude 04:37:49 39° 50° (NE) 1,435 9.0 -26.1°
Enters shadow 04:40:12 30° 93° (E) 1,709 9.1 -26.3°
Drops below altitude 10° 04:43:48 10° 119° (ESE) 2,741 - -26.4°
Sets 04:46:33 0° 126° (SE) 3,680 - -26.6°
